Starlink 2340

operational
NORAD ID: 47882 Int'l Des: 2021-021 Owner: SPXS Country: US Constellation: starlink
LEOCIRCULAR

About Starlink 2340

Description loading...

Live Position

Loading 3D Globe...

Upcoming Passes

Altitude History

Altitude vs Time

uPlot chart will show altitude changes over time

Two-Line Element Set

1 47882U 21021Y 25304.00002315 .00201660 00000-0 16975-2 0 9995
2 47882 53.0367 53.2011 0005467 312.2946 319.2329 15.68698312 5964
Epoch: Oct 31, 2025 • Age: 6 hours

Current Status

Altitude 378.2 km
Velocity 7.68 km/s
Sub-Earth Point -52.08°S, 174.97°E
Launch Date Mar 14, 2021
Age 4.6 years
Type internet

Technical Details

Classification Payload
Mass 260.00 kg
Dry Mass 248.00 kg
Total Mass 260.00 kg
Length 0.20 m
Diameter 2.80 m
Span 9.00 m
Shape Box + pan
Manufacturer SPXS
Bus Type Starlink
Phase Status In Orbit
Owner/State SPXS/US

Large Constellations

Loading constellations...